This is the latest recevied weather packets stored in our database for station/object IW1RCO-13. If no packets are shown the sender has not sent any weather packets the latest 10 day(s).
| Time | Temp. | Humidity | Pressure | Rain* | Wind** | Luminosity | Snow |
|---|---|---|---|---|---|---|---|
| 1788524369 | 31.67° C | 37% | 1020 hPa | - | - | - | - |
| 1788524073 | 31.67° C | 37% | 1020 hPa | - | - | - | - |
| 1788523769 | 31.11° C | 39% | 1020.2 hPa | - | - | - | - |
| 1788523472 | 30.56° C | 46% | 1020 hPa | - | - | - | - |
| 1788523169 | 30° C | 44% | 1020 hPa | - | - | - | - |
| 1788522872 | 30.56° C | 45% | 1020.2 hPa | - | - | - | - |
| 1788522568 | 30° C | 46% | 1020 hPa | - | - | - | - |
| 1788522399 | 30° C | 47% | 1020 hPa | - | - | - | - |
| 1788521968 | 30° C | 48% | 1020 hPa | - | - | - | - |
| 1788521672 | 30.56° C | 46% | 1019.7 hPa | - | - | - | - |
| 1788521369 | 30.56° C | 45% | 1020.2 hPa | - | - | - | - |
| 1788521072 | 30° C | 47% | 1019.9 hPa | - | - | - | - |
| 1788520772 | 30° C | 47% | 1020 hPa | - | - | - | - |
| 1788520471 | 30° C | 47% | 1020 hPa | - | - | - | - |
| 1788520167 | 30° C | 51% | 1019.9 hPa | - | - | - | - |
| 1788519872 | 30° C | 52% | 1020.2 hPa | - | - | - | - |
| 1788518069 | 29.44° C | 55% | 1020.3 hPa | - | - | - | - |
| 1788517773 | 28.33° C | 55% | 1020 hPa | - | - | - | - |
| 1788517469 | 28.89° C | 55% | 1020 hPa | - | - | - | - |
| 1788517172 | 28.89° C | 54% | 1020 hPa | - | - | - | - |
| 1788516869 | 28.33° C | 51% | 1019.8 hPa | - | - | - | - |
| 1788516572 | 28.89° C | 48% | 1019.9 hPa | - | - | - | - |
| 1788516269 | 28.89° C | 50% | 1019.9 hPa | - | - | - | - |
| 1788515972 | 28.89° C | 44% | 1019.9 hPa | - | - | - | - |
| 1788515668 | 28.89° C | 46% | 1020 hPa | - | - | - | - |
* Rain since midnight (hover to see other rain measurements)
** Current wind speed in m/s (hover to see current wind gust speed)